Showing default

SHERPA-FX2/TAGSAT-2, 48958

Orbit data source: Space-Track

SHERPA-FX2/TAGSAT-2, 48958 is a payload satellite owned by Spaceflight Ind (US) in SSO that was launched on Wed, 30 Jun 2021 UTC via an FALCON 9 launch vehicle from the Air Force Eastern Test Range (AFETR). Payload-class satellites include a variety of spacecraft equipped with specific instruments for various scientific and technological missions. These include communications satellites like Starlink; space stations such as the ISS; scientific satellites like the Hubble; Earth observation satellites from companies like Planet Labs, Umbra, and HawkEye 360; GPS; miniature CubeSats for education and research; and military/defense satellites.

Loading next visibility...
Identifier
48958, 2021-059CH
Orbit
SSO
Country
Flag of USUS
Related business
Manufacturer
Spaceflight Ind
Mission
Operational Commercial Technology
Bus & Motor
ESPA/SHERPA-FX, Unknown motor
Mass
295 kg wet, 128 kg dry
Launch date (UTC)
2021-06-30 (4 years ago)
Launch vehicle
FALCON 9
Launch site
Air Force Eastern Test Range (AFETR)
Object type
Payload
Rocket body
Debris
Shape & HBR
Cyl, 0.4 m
Radar Cross Section
0.503 m², Medium (>0.1 m² and < 1m²)

Expand to show TLE details & history
Last TLE update: 8 hours ago

TLE from 8 hours ago
0 SHERPA-FX2/TAGSAT-2
1 48958U 21059CH  25308.78952262  .00017282  00000-0  35222-3 0  9997
2 48958  97.6883 122.3783 0009343  78.9325 281.2973 15.46262203242636
Epoch: 2025-11-04T18:56Z
TLE epoch observation values (Epoch: 2025-11-04T18:56:54.754Z)
Latitude
-0.00009°
Longitude
153.87867°
Altitude
429.549 km
Speed
7.654 km/s
True Right ascension
08h 09m 30s
True Declination
0° 00' 00"
Sunlit
Object was in daylight at epoch
Visualization orbit readout
Latitude
Unknown
Longitude
Unknown
Altitude
Unknown
Speed
Unknown
Apparent Right ascension
Unknown
Apparent Declination
Unknown
Sunlit
N/A
Visualization observer readout
Local Sidereal Time
22:53:25
Azimuth
Unknown
Elevation
Unknown
Doppler factor
Unknown
Orbital elements
Apogee altitude
430.971 km
Perigee altitude
418.259 km
Semi-major axis
6,802.752 km
Eccentricity
0.00093
Inclination
97.6883°
RAAN
122.3783°
Arg. of periapsis
78.9325°
True anomaly
281.19229°
Mean anomaly
281.2973°
Eccentric anomaly
281.2448°
Mean motion
3.86826 °/min
Orbital period
93.06 mins
BSTAR
0.00035222
Loading maneuver chart data...
Computing Atmospheric mass density...

Documentation

Showing up to 5 results
|